Location: Benque
(43.2594°N, 0.9178°E)
Time: 03:37:41
(UTC+00:00)

ERBS - Pass Details

Date: 24 January 2020
Orbit: 412 x 427 km, 57.0° (Epoch: 18 February)

Event Time Altitude Azimuth Distance (km) Brightness Sun altitude
Rises 17:50:18 0° 249° (WSW) 2,349 8.4 -9.9°
Reaches altitude 10° 17:52:31 10° 259° (W) 1,487 6.6 -10.2°
Maximum altitude 17:55:32 32° 325° (NW) 733 3.7 -10.8°
Enters shadow 17:58:30 11° 31° (NNE) 1,460 4.6 -11.3°
